Regional Weather Roundup
Issued by NWS

Home | Current Version | Previous Version | Graphics & Text | Print | Product List | Glossary On
Versions: 1 2 3 4 5 6 7 8 9 10 11 12 13 14 15 16 17 18 19 20 21 22 23 24 25 26 27 28 29 30 31 32 33 34 35 36 37 38 39 40 41 42 43 44 45 46 47 48 49 50
000
ASUS43 KLMK 251702
RWRKY
KENTUCKY REGIONAL WEATHER ROUNDUP
NATIONAL WEATHER SERVICE LOUISVILLE KY
1200 PM EST THU DEC 25 2014

NOTE "FAIR" INDICATES FEW OR NO CLOUDS BELOW 12,000 FEET
WITH NO SIGNIFICANT WEATHER AND/OR OBSTRUCTIONS TO VISIBILITY.

KYZ001>023-026-027-061>063-070>075-251800-
WESTERN AND SOUTH CENTRAL KENTUCKY

CITY           SKY/WX    TMP DP  RH WIND       PRES   REMARKS
PADUCAH        MOSUNNY   45  34  65 SW13      30.15S
HENDERSON      PTSUNNY   45  32  61 SW13      30.14F
OWENSBORO      PTSUNNY   44  34  68 SW14      30.17S
HOPKINSVILLE   PTSUNNY   46  32  57 SW12      30.18F
BOWLING GREEN  CLOUDY    43  32  65 SW13      30.21S
GLASGOW        NOT AVBL
$$

KYZ024-025-028>034-038-045-046-053-251800-
NORTH CENTRAL KENTUCKY

CITY           SKY/WX    TMP DP  RH WIND       PRES   REMARKS
LOUISVILLE/SDF CLOUDY    43  33  68 SW12      30.16F
LOUISVILLE/LOU CLOUDY    42  32  67 SW8       30.16S
FORT KNOX      CLOUDY    41  32  71 S8        30.15S
$$

KYZ035>037-039>044-047>052-055>060-089>105-251800-
NORTHEAST KENTUCKY

CITY           SKY/WX    TMP DP  RH WIND       PRES   REMARKS
LEXINGTON      CLOUDY    39  31  72 SW9       30.17R WCI  33
COVINGTON      CLOUDY    39  30  70 SW9       30.13R WCI  33
FRANKFORT      CLOUDY    40  30  67 SW12G21   30.16R WCI  33
$$

KYZ054-064>069-076>088-106>120-251800-
SOUTHEAST KENTUCKY

CITY           SKY/WX    TMP DP  RH WIND       PRES   REMARKS
JACKSON        CLOUDY    39  33  79 VRB6      30.17R WCI  35
LONDON         CLOUDY    42  32  67 SW10      30.18F
SOMERSET       NOT AVBL
MIDDLESBORO    CLOUDY    44  32  64 SW5       30.19F
MONTICELLO     CLOUDY    42  35  76 SW8       30.23R
$$



USA.gov is the U.S. government's official web portal to all federal, state and local government web resources and services.